2024/03/10 00:00:00,62.8,-4.3
2024/03/10 00:10:00,62.8,-4.2
2024/03/10 00:20:00,62.4,-4.5
2024/03/10 00:30:00,62.3,-4.6
2024/03/10 00:40:00,62.3,-4.5
2024/03/10 00:50:00,62.1,-4.8
2024/03/10 01:00:00,62.3,-5.0
2024/03/10 01:10:00,62.4,-4.9
2024/03/10 01:20:00,62.4,-5.2
2024/03/10 01:30:00,62.2,-5.2
2024/03/10 01:40:00,61.9,-5.3
2024/03/10 01:50:00,61.7,-5.4
2024/03/10 02:00:00,61.8,-5.5
2024/03/10 02:10:00,62.0,-5.7
2024/03/10 02:20:00,61.8,-5.7
2024/03/10 02:30:00,61.6,-6.1
2024/03/10 02:40:00,61.5,-6.0
2024/03/10 02:50:00,61.5,-6.0
2024/03/10 03:00:00,61.4,-6.1
2024/03/10 03:10:00,61.4,-6.0
2024/03/10 03:20:00,61.4,-5.8
2024/03/10 03:30:00,61.4,-6.2
2024/03/10 03:40:00,61.4,-5.9
2024/03/10 03:50:00,61.3,-5.9
2024/03/10 04:00:00,61.3,-6.0
2024/03/10 04:10:00,61.2,-5.6
2024/03/10 04:20:00,61.3,-5.5
2024/03/10 04:30:00,61.2,-5.5
2024/03/10 04:40:00,61.1,-5.3
2024/03/10 04:50:00,61.2,-5.3
2024/03/10 05:00:00,61.2,-5.6
2024/03/10 05:10:00,61.2,-5.7
2024/03/10 05:20:00,61.2,-5.5
2024/03/10 05:30:00,61.0,-5.8
2024/03/10 05:40:00,60.9,-5.8
2024/03/10 05:50:00,60.8,-5.7
2024/03/10 06:00:00,60.7,-5.8
2024/03/10 06:10:00,60.6,-5.9
2024/03/10 06:20:00,60.5,-5.3
2024/03/10 06:30:00,60.1,-5.5
2024/03/10 06:40:00,60.1,-5.5
2024/03/10 06:50:00,60.4,-5.0
2024/03/10 07:00:00,60.6,-5.5
2024/03/10 07:10:00,60.8,-5.2
2024/03/10 07:20:00,60.7,-4.9
2024/03/10 07:30:00,60.5,-5.0
2024/03/10 07:40:00,60.5,-4.8
2024/03/10 07:50:00,60.5,-4.4
2024/03/10 08:00:00,60.4,-4.2
2024/03/10 08:10:00,60.4,-3.1
2024/03/10 08:20:00,60.4,-3.5
2024/03/10 08:30:00,60.5,-3.1
2024/03/10 08:40:00,60.3,-2.2
2024/03/10 08:50:00,60.1,-1.7
2024/03/10 09:00:00,60.0,-1.2
2024/03/10 09:10:00,59.9,-1.2
2024/03/10 09:20:00,59.7,-0.7
2024/03/10 09:30:00,59.6,-0.9
2024/03/10 09:40:00,59.5,-1.1
2024/03/10 09:50:00,58.7,-1.4
2024/03/10 10:00:00,58.3,-0.8
2024/03/10 10:10:00,58.0, 0.3
2024/03/10 10:20:00,58.0, 0.8
2024/03/10 10:30:00,57.9, 0.5
2024/03/10 10:40:00,57.6, 0.9
2024/03/10 10:50:00,57.5, 1.0
2024/03/10 11:00:00,57.4, 0.8
2024/03/10 11:10:00,57.3, 1.4
2024/03/10 11:20:00,56.7, 2.7
2024/03/10 11:30:00,57.5, 1.5
2024/03/10 11:40:00,57.6, 1.4
2024/03/10 11:50:00,57.5, 2.4
2024/03/10 12:00:00,57.1, 3.4
2024/03/10 12:10:00,56.6, 2.6
2024/03/10 12:20:00,56.2, 2.2
2024/03/10 12:30:00,55.9, 2.2
2024/03/10 12:40:00,56.1, 2.7
2024/03/10 12:50:00,55.9, 2.2
2024/03/10 13:00:00,55.0, 1.4
2024/03/10 13:10:00,54.7, 1.8
2024/03/10 13:20:00,53.4, 1.7
2024/03/10 13:30:00,51.4, 1.7
2024/03/10 13:40:00,51.5, 2.0
2024/03/10 13:50:00,53.0, 1.3
2024/03/10 14:00:00,53.3, 3.2
2024/03/10 14:10:00,53.5, 3.3
2024/03/10 14:20:00,53.9, 2.9
2024/03/10 14:30:00,54.1, 3.9
2024/03/10 14:40:00,54.0, 4.7
2024/03/10 14:50:00,52.2, 4.6
2024/03/10 15:00:00,52.7, 3.8
2024/03/10 15:10:00,52.8, 2.9
2024/03/10 15:20:00,53.5, 2.2
2024/03/10 15:30:00,53.7, 1.1
2024/03/10 15:40:00,53.5, 0.9
2024/03/10 15:50:00,53.6, 0.2
2024/03/10 16:00:00,53.4,-0.2
2024/03/10 16:10:00,53.5,-0.3
2024/03/10 16:20:00,53.4,-0.8
2024/03/10 16:30:00,53.0,-0.8
2024/03/10 16:40:00,52.8,-0.5
2024/03/10 16:50:00,52.7,-0.9
2024/03/10 17:00:00,52.8,-1.2
2024/03/10 17:10:00,52.8,-1.4
2024/03/10 17:20:00,52.8,-1.9
2024/03/10 17:30:00,52.8,-2.0
2024/03/10 17:40:00,52.7,-2.3
2024/03/10 17:50:00,52.7,-2.3
2024/03/10 18:00:00,52.6,-2.5
2024/03/10 18:10:00,52.6,-2.7
2024/03/10 18:20:00,52.6,-2.8
2024/03/10 18:30:00,52.6,-3.1
2024/03/10 18:40:00,52.5,-3.3
2024/03/10 18:50:00,52.3,-3.3
2024/03/10 19:00:00,52.3,-3.5
2024/03/10 19:10:00,52.3,-3.2
2024/03/10 19:20:00,52.3,-3.6
2024/03/10 19:30:00,52.2,-3.9
2024/03/10 19:40:00,52.0,-3.8
2024/03/10 19:50:00,51.9,-3.8
2024/03/10 20:00:00,51.8,-3.9
2024/03/10 20:10:00,51.8,-3.8
2024/03/10 20:20:00,51.8,-3.8
2024/03/10 20:30:00,51.8,-3.8
2024/03/10 20:40:00,51.7,-3.7
2024/03/10 20:50:00,51.6,-3.9
2024/03/10 21:00:00,51.4,-4.0
2024/03/10 21:10:00,51.2,-4.3
2024/03/10 21:20:00,51.1,-4.2
2024/03/10 21:30:00,51.2,-4.5
2024/03/10 21:40:00,51.0,-4.1
2024/03/10 21:50:00,50.9,-4.0
2024/03/10 22:00:00,50.9,-4.4
2024/03/10 22:10:00,50.8,-4.4
2024/03/10 22:20:00,50.8,-4.3
2024/03/10 22:30:00,50.8,-4.3
2024/03/10 22:40:00,50.7,-4.9
2024/03/10 22:50:00,50.6,-4.7
2024/03/10 23:00:00,50.6,-4.7
2024/03/10 23:10:00,50.6,-4.8
2024/03/10 23:20:00,50.6,-4.7
2024/03/10 23:30:00,50.7,-4.8
2024/03/10 23:40:00,50.7,-4.9
2024/03/10 23:50:00,50.6,-4.9
